VOE217 LEAS-LPPR

Flight info

Callsign VOE217
Flight time 0h 43m
Altitude 23000
Route KUVAN N872 RALUS DCT BELDU DCT INKIT
Aircraft A320/M-SDE3FGHIRWY/LB1

Departure

Time 2026-05-01 10:02
Airport Asturias Airport (LEAS)

Arrival

Time 2026-05-01 10:45
Airport Francisco de Sá Carneiro Airport (LPPR)
Time Latitude Longitude Altitude Speed Heading
2026-05-01 08:53 43.55907 -6.02888 426 ft 0 kts 254°
2026-05-01 09:55 43.55908 -6.02897 415 ft 4 kts 278°
2026-05-01 09:55 43.55957 -6.02897 423 ft 8 kts 11°
2026-05-01 09:55 43.56003 -6.02912 421 ft 6 kts 350°
2026-05-01 09:55 43.56036 -6.02877 418 ft 7 kts 52°
2026-05-01 09:56 43.56039 -6.02814 420 ft 7 kts 106°
2026-05-01 09:56 43.56026 -6.02757 424 ft 6 kts 107°
2026-05-01 09:56 43.56016 -6.02709 421 ft 5 kts 107°
2026-05-01 09:56 43.56007 -6.02671 417 ft 4 kts 108°
2026-05-01 09:57 43.55999 -6.02637 422 ft 4 kts 108°
2026-05-01 09:57 43.55987 -6.02589 414 ft 10 kts 108°
2026-05-01 09:57 43.55954 -6.02455 424 ft 9 kts 108°
2026-05-01 09:57 43.55945 -6.02383 425 ft 6 kts 89°
2026-05-01 09:58 43.55956 -6.02336 417 ft 4 kts 67°
2026-05-01 09:58 43.55961 -6.02320 422 ft 0 kts 60°
2026-05-01 09:59 43.55965 -6.02311 420 ft 2 kts 60°
2026-05-01 09:59 43.55991 -6.02249 420 ft 7 kts 60°
2026-05-01 09:59 43.56026 -6.02208 420 ft 7 kts 23°
2026-05-01 10:00 43.56061 -6.02222 424 ft 6 kts 307°
2026-05-01 10:00 43.56071 -6.02251 415 ft 0 kts 287°
2026-05-01 10:01 43.56074 -6.02265 419 ft 8 kts 287°
2026-05-01 10:01 43.56168 -6.02666 423 ft 83 kts 288°
2026-05-01 10:01 43.56421 -6.03723 420 ft 147 kts 288°
2026-05-01 10:02 43.56799 -6.05161 819 ft 165 kts 291°
2026-05-01 10:02 43.57250 -6.06680 1448 ft 175 kts 292°
2026-05-01 10:02 43.57661 -6.08254 2270 ft 173 kts 287°
2026-05-01 10:02 43.58021 -6.09888 2857 ft 187 kts 287°
2026-05-01 10:03 43.58414 -6.11710 3217 ft 210 kts 287°
2026-05-01 10:03 43.58853 -6.13717 3787 ft 223 kts 287°
2026-05-01 10:03 43.59256 -6.15794 4673 ft 226 kts 274°
2026-05-01 10:03 43.58906 -6.17859 5481 ft 226 kts 232°
2026-05-01 10:04 43.57694 -6.19184 6346 ft 225 kts 204°
2026-05-01 10:04 43.56730 -6.19711 6933 ft 225 kts 197°
2026-05-01 10:04 43.56469 -6.19828 7059 ft 225 kts 197°
2026-05-01 10:05 43.54854 -6.20361 7782 ft 234 kts 193°
2026-05-01 10:05 43.53290 -6.20910 8826 ft 231 kts 194°
2026-05-01 10:05 43.51737 -6.21512 9719 ft 234 kts 195°
2026-05-01 10:05 43.50166 -6.22160 10058 ft 236 kts 195°
2026-05-01 10:06 43.48601 -6.22831 10147 ft 235 kts 196°
2026-05-01 10:06 43.47042 -6.23493 10162 ft 235 kts 192°
2026-05-01 10:06 43.45328 -6.23899 10159 ft 269 kts 188°
2026-05-01 10:06 43.43366 -6.24342 10342 ft 299 kts 189°
2026-05-01 10:07 43.41222 -6.24831 10642 ft 324 kts 189°
2026-05-01 10:07 43.38920 -6.25356 10923 ft 346 kts 189°
2026-05-01 10:07 43.36504 -6.25906 11536 ft 355 kts 189°
2026-05-01 10:07 43.34051 -6.26466 12302 ft 360 kts 190°
2026-05-01 10:08 43.29066 -6.27616 13855 ft 367 kts 190°
2026-05-01 10:08 43.26536 -6.28201 14540 ft 370 kts 190°
2026-05-01 10:08 43.23983 -6.28785 15251 ft 373 kts 190°
2026-05-01 10:09 43.21448 -6.29359 15944 ft 376 kts 190°
2026-05-01 10:09 43.18858 -6.29942 16629 ft 378 kts 190°
2026-05-01 10:09 43.16217 -6.30537 17349 ft 381 kts 190°
2026-05-01 10:09 43.13595 -6.31133 18039 ft 384 kts 190°
2026-05-01 10:10 43.11023 -6.31978 18668 ft 386 kts 200°
2026-05-01 10:10 43.08537 -6.33500 19255 ft 389 kts 207°
2026-05-01 10:10 43.03704 -6.36939 20320 ft 394 kts 207°
2026-05-01 10:11 43.01258 -6.38669 20856 ft 397 kts 207°
2026-05-01 10:11 42.98792 -6.40411 21371 ft 400 kts 207°
2026-05-01 10:11 42.96314 -6.42160 21881 ft 403 kts 207°
2026-05-01 10:11 42.93817 -6.43920 22342 ft 405 kts 207°
2026-05-01 10:12 42.91303 -6.45689 22800 ft 408 kts 207°
2026-05-01 10:12 42.89626 -6.46869 23066 ft 410 kts 207°
2026-05-01 10:12 42.83733 -6.51007 23146 ft 406 kts 207°
2026-05-01 10:13 42.81220 -6.52767 23144 ft 406 kts 207°
2026-05-01 10:13 42.78740 -6.54502 23145 ft 406 kts 207°
2026-05-01 10:13 42.76224 -6.56248 23147 ft 406 kts 207°
2026-05-01 10:14 42.71143 -6.59735 23147 ft 406 kts 207°
2026-05-01 10:14 42.68650 -6.61438 23147 ft 406 kts 207°
2026-05-01 10:14 42.66095 -6.63181 23147 ft 406 kts 207°
2026-05-01 10:14 42.63568 -6.64908 23146 ft 406 kts 207°
2026-05-01 10:15 42.61045 -6.66634 23146 ft 406 kts 207°
2026-05-01 10:15 42.58558 -6.68335 23147 ft 406 kts 207°
2026-05-01 10:15 42.56000 -6.70083 23150 ft 406 kts 207°
2026-05-01 10:15 42.53478 -6.71806 23149 ft 406 kts 207°
2026-05-01 10:16 42.50956 -6.73526 23149 ft 406 kts 207°
2026-05-01 10:16 42.48463 -6.75222 23151 ft 406 kts 207°
2026-05-01 10:16 42.43382 -6.78675 23152 ft 406 kts 207°
2026-05-01 10:17 42.40858 -6.80388 23146 ft 406 kts 207°
2026-05-01 10:17 42.35840 -6.83793 23151 ft 406 kts 207°
2026-05-01 10:17 42.33312 -6.85505 23156 ft 407 kts 207°
2026-05-01 10:18 42.28244 -6.88935 23155 ft 408 kts 207°
2026-05-01 10:18 42.25706 -6.90651 23152 ft 407 kts 207°
2026-05-01 10:18 42.23173 -6.92362 23154 ft 408 kts 207°
2026-05-01 10:19 42.20635 -6.94074 23152 ft 407 kts 207°
2026-05-01 10:19 42.18103 -6.95769 23149 ft 408 kts 207°
2026-05-01 10:19 42.15545 -6.97450 23156 ft 408 kts 207°
2026-05-01 10:20 42.10430 -7.00767 23158 ft 408 kts 206°
2026-05-01 10:20 42.07877 -7.02421 23159 ft 408 kts 207°
2026-05-01 10:20 42.05355 -7.04055 23158 ft 408 kts 206°
2026-05-01 10:20 42.02796 -7.05715 23157 ft 408 kts 207°
2026-05-01 10:21 42.00240 -7.07376 23157 ft 408 kts 206°
2026-05-01 10:21 41.95125 -7.10707 23160 ft 409 kts 209°
2026-05-01 10:21 41.92734 -7.12759 23160 ft 408 kts 218°
2026-05-01 10:22 41.88417 -7.17713 23163 ft 408 kts 221°
2026-05-01 10:22 41.84108 -7.22684 23171 ft 408 kts 221°
2026-05-01 10:23 41.81956 -7.25162 23162 ft 408 kts 221°
2026-05-01 10:23 41.77645 -7.30119 23166 ft 408 kts 221°
2026-05-01 10:23 41.75492 -7.32594 23166 ft 408 kts 221°
2026-05-01 10:24 41.71183 -7.37543 23166 ft 408 kts 221°
2026-05-01 10:24 41.66869 -7.42483 23166 ft 408 kts 221°
2026-05-01 10:25 41.62553 -7.47413 23167 ft 408 kts 221°
2026-05-01 10:25 41.58205 -7.52374 22953 ft 423 kts 221°
2026-05-01 10:26 41.55920 -7.54977 22689 ft 437 kts 221°
2026-05-01 10:26 41.53592 -7.57624 22423 ft 440 kts 221°
2026-05-01 10:26 41.48933 -7.62910 21900 ft 439 kts 221°
2026-05-01 10:27 41.44300 -7.68172 21385 ft 435 kts 221°
2026-05-01 10:27 41.39707 -7.73377 20881 ft 432 kts 220°
2026-05-01 10:28 41.37403 -7.75970 20626 ft 430 kts 219°
2026-05-01 10:28 41.32337 -7.80020 19047 ft 425 kts 206°
2026-05-01 10:28 41.29682 -7.81694 18124 ft 422 kts 206°
2026-05-01 10:29 41.24440 -7.84995 16431 ft 411 kts 206°
2026-05-01 10:29 41.21881 -7.86657 15644 ft 407 kts 209°
2026-05-01 10:30 41.17639 -7.91475 14150 ft 401 kts 231°
2026-05-01 10:30 41.15369 -7.96780 12930 ft 396 kts 244°
2026-05-01 10:31 41.12737 -8.04369 11402 ft 382 kts 243°
2026-05-01 10:31 41.09140 -8.09393 11170 ft 384 kts 210°
2026-05-01 10:32 41.05237 -8.12311 11174 ft 385 kts 209°
2026-05-01 10:32 41.02904 -8.14048 11179 ft 385 kts 209°
2026-05-01 10:32 40.98236 -8.17518 11020 ft 382 kts 209°
2026-05-01 10:33 40.93783 -8.20832 10313 ft 352 kts 209°
2026-05-01 10:33 40.89812 -8.23778 9502 ft 305 kts 209°
2026-05-01 10:34 40.88042 -8.25093 9097 ft 286 kts 209°
2026-05-01 10:34 40.86303 -8.26391 8678 ft 276 kts 209°
2026-05-01 10:34 40.84643 -8.27637 8273 ft 273 kts 210°
2026-05-01 10:35 40.82299 -8.31431 7485 ft 274 kts 248°
2026-05-01 10:35 40.81655 -8.33794 7094 ft 273 kts 249°
2026-05-01 10:35 40.81036 -8.36153 6716 ft 272 kts 249°
2026-05-01 10:35 40.80422 -8.38504 6321 ft 271 kts 249°
2026-05-01 10:36 40.79204 -8.43176 6191 ft 270 kts 250°
2026-05-01 10:36 40.78921 -8.45625 6186 ft 273 kts 272°
2026-05-01 10:36 40.79410 -8.48008 6196 ft 277 kts 297°
2026-05-01 10:37 40.80648 -8.49942 6190 ft 280 kts 323°
2026-05-01 10:37 40.84227 -8.52000 6198 ft 282 kts 339°
2026-05-01 10:37 40.86035 -8.52913 6179 ft 271 kts 338°
2026-05-01 10:38 40.87761 -8.53787 6014 ft 260 kts 338°
2026-05-01 10:38 40.89403 -8.54626 5962 ft 244 kts 338°
2026-05-01 10:38 40.90957 -8.55424 6143 ft 245 kts 338°
2026-05-01 10:38 40.92559 -8.56249 6162 ft 248 kts 338°
2026-05-01 10:39 40.94176 -8.57080 5953 ft 245 kts 338°
2026-05-01 10:39 40.95756 -8.57893 5856 ft 249 kts 338°
2026-05-01 10:39 40.97384 -8.58731 5580 ft 253 kts 338°
2026-05-01 10:39 40.99015 -8.59570 5266 ft 248 kts 338°
2026-05-01 10:40 41.00610 -8.60391 4954 ft 246 kts 338°
2026-05-01 10:40 41.02207 -8.61216 4630 ft 248 kts 338°
2026-05-01 10:40 41.03818 -8.62048 4196 ft 247 kts 338°
2026-05-01 10:40 41.05388 -8.62857 3841 ft 237 kts 339°
2026-05-01 10:41 41.06934 -8.63441 3530 ft 226 kts 349°
2026-05-01 10:41 41.08451 -8.63829 3220 ft 220 kts 349°
2026-05-01 10:41 41.11353 -8.64592 2644 ft 205 kts 348°
2026-05-01 10:42 41.12722 -8.64952 2406 ft 195 kts 348°
2026-05-01 10:42 41.14021 -8.65293 2139 ft 186 kts 348°
2026-05-01 10:42 41.15257 -8.65618 1881 ft 176 kts 348°
2026-05-01 10:42 41.16400 -8.65915 1668 ft 157 kts 348°
2026-05-01 10:43 41.17425 -8.66184 1459 ft 144 kts 346°
2026-05-01 10:43 41.18388 -8.66435 1257 ft 139 kts 346°
2026-05-01 10:43 41.19330 -8.66672 1049 ft 137 kts 347°
2026-05-01 10:43 41.20260 -8.66895 822 ft 135 kts 346°
2026-05-01 10:44 41.21158 -8.67157 627 ft 134 kts 345°
2026-05-01 10:44 41.22072 -8.67417 484 ft 133 kts 348°
2026-05-01 10:44 41.22965 -8.67634 336 ft 131 kts 346°
2026-05-01 10:44 41.23837 -8.67876 226 ft 118 kts 347°
2026-05-01 10:45 41.24486 -8.68053 213 ft 73 kts 347°
2026-05-01 10:45 41.24781 -8.68121 199 ft 36 kts 352°
2026-05-01 10:45 41.25030 -8.68175 190 ft 37 kts 359°
2026-05-01 10:45 41.25242 -8.68119 180 ft 15 kts 20°
2026-05-01 10:46 41.25274 -8.68023 182 ft 12 kts 142°
2026-05-01 10:46 41.25207 -8.67999 185 ft 8 kts 169°
2026-05-01 10:46 41.25169 -8.67989 197 ft 5 kts 169°
2026-05-01 10:46 41.25124 -8.67977 192 ft 8 kts 169°
2026-05-01 10:47 41.25051 -8.67959 197 ft 14 kts 169°
2026-05-01 10:47 41.24940 -8.67930 198 ft 19 kts 169°
2026-05-01 10:47 41.24813 -8.67858 212 ft 22 kts 149°
2026-05-01 10:47 41.24693 -8.67806 210 ft 16 kts 174°
2026-05-01 10:48 41.24573 -8.67780 216 ft 19 kts 168°
2026-05-01 10:48 41.24433 -8.67744 224 ft 22 kts 169°
2026-05-01 10:48 41.24287 -8.67680 232 ft 20 kts 142°
2026-05-01 10:48 41.24228 -8.67590 237 ft 10 kts 143°
2026-05-01 10:49 41.24153 -8.67565 238 ft 12 kts 171°
2026-05-01 10:49 41.24100 -8.67551 238 ft 0 kts 166°
2026-05-01 10:49 41.24082 -8.67545 238 ft 5 kts 165°
2026-05-01 10:49 41.24061 -8.67537 238 ft 3 kts 164°
2026-05-01 10:50 41.24043 -8.67531 238 ft 2 kts 166°
2026-05-01 10:50 41.24013 -8.67523 238 ft 7 kts 170°
2026-05-01 10:50 41.23946 -8.67507 238 ft 9 kts 169°
2026-05-01 10:50 41.23895 -8.67494 238 ft 9 kts 168°
2026-05-01 10:51 41.23817 -8.67474 239 ft 14 kts 169°
2026-05-01 10:51 41.23746 -8.67439 239 ft 12 kts 139°
2026-05-01 10:51 41.23702 -8.67363 242 ft 8 kts 136°
2026-05-01 10:51 41.23643 -8.67334 242 ft 5 kts 169°
2026-05-01 10:52 41.23632 -8.67288 244 ft 6 kts 76°
2026-05-01 10:52 41.23638 -8.67256 245 ft 1 kts 78°
2026-05-01 10:52 41.23640 -8.67241 245 ft 0 kts 79°